Tracking 20093 objects as of 14-Dec-2019
HD Live streaming from Space Station
objects crossing your sky now

FLOCK 3P 62

Track FLOCK 3P 62 now!
10-day predictions
FLOCK 3P 62 is classified as:


NORAD ID: 42036
Int'l Code: 2017-008CS
Perigee: 486.9 km
Apogee: 495.0 km
Inclination: 97.4 °
Period: 94.3 minutes
Semi major axis: 6861 km
RCS: Unknown
Launch date: February 15, 2017
Source: United States (US)
Launch site: SRIHARIKOTA (SRI)
aabbcc
Your satellite tracking list
Your tracking list is empty




NASA's NSSDC Master Catalog

Two Line Element Set (TLE):
1 42036U 17008CS  19347.92369198 +.00002105 +00000-0 +81389-4 0  9993
2 42036 097.3890 054.0125 0005897 248.0169 112.0444 15.27334053156369
Source of the keplerian elements: AFSPC